Niagara Airport

*Note: All times are displayed in the local standard time of the station location.
**Rain - Equipment is designed to accurately record liquid precipitation; under conditions when precipitation is not in liquid form, the data displayed may not properly reflect rainfall values.

Date Max Temp
(°C)
Min Temp
(°C)
Avg Temp
(°C)
Rain (mm) Avg RH (%)
Mon, Dec 11, 2017 -1.6 -4.8 -3.6 0.0 83.8
Sun, Dec 10, 2017 -1.1 -2.6 -1.8 0.0 69.5
Sat, Dec 09, 2017 1.2 -3.1 -0.6 0.0 61.7
Fri, Dec 08, 2017 0.2 -4.6 -1.8 0.0 61.3
Thu, Dec 07, 2017 1.2 -3.4 -0.6 0.0 60.7
Wed, Dec 06, 2017 3.9 -0.9 1.5 0.0 53.0
Tue, Dec 05, 2017 11.4 0.8 7.7 6.0 69.2
DateTime Avg Temp (°C) Rain (mm) RH (%)
Tue, Dec 12, 2017 02:00 -3.1 0.0 97.5
Tue, Dec 12, 2017 01:00 -3.5 0.0 96.8
Tue, Dec 12, 2017 00:00 -3.9 0.0 96.0
Mon, Dec 11, 2017 23:00 -4.2 0.0 95.0
Mon, Dec 11, 2017 22:00 -4.6 0.0 93.3
Mon, Dec 11, 2017 21:00 -4.8 0.0 93.0
Mon, Dec 11, 2017 20:00 -4.8 0.0 92.8
Mon, Dec 11, 2017 19:00 -4.6 0.0 93.8
Mon, Dec 11, 2017 18:00 -4.2 0.0 93.5
Mon, Dec 11, 2017 17:00 -4.0 0.0 91.8
Mon, Dec 11, 2017 16:00 -3.9 0.0 88.8
Mon, Dec 11, 2017 15:00 -3.9 0.0 81.3
Mon, Dec 11, 2017 14:00 -4.0 0.0 80.3
Mon, Dec 11, 2017 13:00 -3.9 0.0 80.3
Mon, Dec 11, 2017 12:00 -3.2 0.0 79.8
Mon, Dec 11, 2017 11:00 -3.1 0.0 78.0
Mon, Dec 11, 2017 10:00 -2.9 0.0 74.3
Mon, Dec 11, 2017 09:00 -3.6 0.0 79.0
Mon, Dec 11, 2017 08:00 -4.2 0.0 77.8
Mon, Dec 11, 2017 07:00 -4.0 0.0 78.3
Mon, Dec 11, 2017 06:00 -3.3 0.0 81.0
Mon, Dec 11, 2017 05:00 -2.7 0.0 78.8
Mon, Dec 11, 2017 04:00 -2.4 0.0 72.0
Mon, Dec 11, 2017 03:00 -2.5 0.0 75.3
Mon, Dec 11, 2017 02:00 -2.3 0.0 82.3
Mon, Dec 11, 2017 01:00 -1.7 0.0 75.5
Mon, Dec 11, 2017 00:00 -2.0 0.0 72.8
Sun, Dec 10, 2017 23:00 -2.1 0.0 71.3
Sun, Dec 10, 2017 22:00 -2.1 0.0 70.5
Sun, Dec 10, 2017 21:00 -2.0 0.0 68.5
Sun, Dec 10, 2017 20:00 -2.0 0.0 66.8
Sun, Dec 10, 2017 19:00 -1.8 0.0 63.3
Sun, Dec 10, 2017 18:00 -1.5 0.0 60.3
Sun, Dec 10, 2017 17:00 -1.5 0.0 64.8
Sun, Dec 10, 2017 16:00 -1.4 0.0 65.0
Sun, Dec 10, 2017 15:00 -1.3 0.0 65.3
Sun, Dec 10, 2017 14:00 -1.3 0.0 64.3
Sun, Dec 10, 2017 13:00 -1.4 0.0 65.3
Sun, Dec 10, 2017 12:00 -1.4 0.0 60.8
Sun, Dec 10, 2017 11:00 -1.9 0.0 61.0
Sun, Dec 10, 2017 10:00 -2.3 0.0 63.5
Sun, Dec 10, 2017 09:00 -2.6 0.0 62.0
Sun, Dec 10, 2017 08:00 -2.4 0.0 65.3
Sun, Dec 10, 2017 07:00 -2.1 0.0 72.8
Sun, Dec 10, 2017 06:00 -1.5 0.0 69.5
Sun, Dec 10, 2017 05:00 -1.3 0.0 77.0
Sun, Dec 10, 2017 04:00 -2.0 0.0 87.0
Sun, Dec 10, 2017 03:00 -2.1 0.0 84.5


asterix Register now to access more data! asterix